Regional Weather Roundup
Issued by NWS Kansas City/Pleasant Hill, MO

Home | Current Version | Previous Version | Graphics & Text | Print | Product List | Glossary Off
Versions: 1 2 3 4 5 6 7 8 9 10 11 12 13 14 15 16 17 18 19 20 21 22 23 24 25 26 27 28 29 30 31 32 33 34 35 36 37 38 39 40 41 42 43 44 45 46 47 48 49 50

000
ASUS43 KEAX 190110
RWREAX

WEATHER ROUNDUP FOR EASTERN KANSAS AND NORTHWEST MISSOURI
NATIONAL WEATHER SERVICE KANSAS CITY/PLEASANT HILL MO
800 PM CDT WED APR 18 2018

KSZ040-057-103>105-MOZ028-029-037-043-190200-
...KANSAS CITY METROPOLITAN AREA...

CITY           SKY/WX    TMP DP  RH WIND       PRES   REMARKS
K.C. INTL      CLOUDY    41  26  55 N18G28    30.15R WCI  32
K.C. DOWNTOWN  CLOUDY    44  27  51 NW16G31   30.16R
LEES SUMMIT    CLOUDY    44  29  55 NW18G31   30.14R
OLATHE - IXD   CLOUDY    46  29  51 NW16G24   30.16R
OLATHE - OJC   CLOUDY    44  29  55 NW18G25   30.14R
LAWRENCE       CLOUDY    45  28  51 N23G30    30.18R

$$

MOZ001>008-011>017-020>025-030>033-038>040-044>046-053-054-190200-
...NORTHERN AND CENTRAL MISSOURI...

CITY           SKY/WX    TMP DP  RH WIND       PRES   REMARKS
ST. JOSEPH     CLOUDY    41  26  55 NW20G29   30.17R WCI  32
MOSBY          CLOUDY    41  28  60 NW16G22   30.15R WCI  33
WARRENSBURG    CLOUDY    43  28  56 W8        30.13R
WHITEMAN AFB   CLOUDY    43  27  54 W7        30.09R
CLINTON        NOT AVBL
SEDALIA        CLOUDY    43  30  60 W13       30.13R
WARSAW         NOT AVBL
CHILLICOTHE      N/A     40  27  59 NW14G24   30.13R WCI  32
KIRKSVILLE     CLOUDY    36  26  67 NW15      30.08R WCI  27

$$

MOZ041-047>049-056>058-063>065-088>090-097-190200-
...EASTERN AND SOUTHERN MISSOURI...

CITY           SKY/WX    TMP DP  RH WIND       PRES   REMARKS
ST. LOUIS INTL CLOUDY    44  32  62 NW22G32   30.01R
SPIRIT OF STL  CLOUDY    45  32  60 NW21G32   30.02R
COLUMBIA       CLOUDY    42  26  53 W15G26    30.09R WCI  34
JEFFERSON CITY CLOUDY    43  27  53 W16G24    30.11R
ROLLA          CLOUDY    42  31  64 NW22G32   30.07R WCI  33
OSAGE BEACH    CLOUDY    43  28  55 NW9G22    30.14R
SPRINGFIELD    MOCLDY    48  31  51 N25G35    30.11R
BRANSON        CLEAR     55  32  41 NW15G24   30.07R
JOPLIN         CLEAR     48  28  46 NW14      30.16R
WEST PLAINS    PTCLDY    54  34  46 NW14G23   30.03R

$$

IAZ060-094-KSZ022-034>040-054-083-096-NEZ052-066-093-190200-
...KANSAS...SOUTHEAST NEBRASKA AND IOWA...

CITY           SKY/WX    TMP DP  RH WIND       PRES   REMARKS
TOPEKA         CLOUDY    46  29  51 NW18G30   30.19R
MANHATTAN      CLEAR     48  28  46 N9G21     30.21R
EMPORIA        CLEAR     49  28  44 NW21G29   30.17R
CHANUTE        CLEAR     50  27  40 NW12G22   30.18R
WICHITA        CLEAR     56  28  34 N14       30.18R
OMAHA          CLOUDY    40  31  70 NW20      30.17R WCI  30
LINCOLN        CLOUDY    41  29  62 NW13      30.21R WCI  34
FALLS CITY     CLOUDY    41  26  55 NW15G24   30.18R WCI  33
LAMONI         CLOUDY    36  25  64 NW15      30.10R WCI  27
DES MOINES     CLOUDY    34  26  72 NW14G26   30.11R WCI  25

$$




USA.gov is the U.S. government's official web portal to all federal, state and local government web resources and services.